FW3619 Weather Reports


time (UTC)temp
C
wind
direction
speed
KPH
gust
KPH
rain 1hr
cm
rain 24hr
cm
rain mn
cm
humidity
%
barometer
mb
20260510194054 22 214 8.0 11.3 0.00 0.00 0.00 69 1014.6
20260510193553 22 141 4.8 14.5 0.00 0.00 0.00 71 1014.7
20260510193049 21 124 8.0 14.5 0.00 0.00 0.00 73 1014.4
20260510192549 21 136 1.6 14.5 0.00 0.00 0.00 72 1014.9
20260510192045 21 161 3.2 11.3 0.00 0.00 0.00 73 1014.6
20260510191542 20 126 3.2 11.3 0.00 0.00 0.00 73 1014.9
20260510191039 20 130 4.8 8.0 0.00 0.00 0.00 75 1014.9
20260510190536 20 168 6.4 8.0 0.00 0.00 0.00 73 1014.6
20260510190034 20 107 4.8 11.3 0.00 0.00 0.00 73 1014.9
20260510185530 21 163 4.8 11.3 0.00 0.00 0.00 74 1014.8
20260510185028 21 133 8.0 11.3 0.00 0.00 0.00 72 1015.0
20260510184525 21 174 6.4 11.3 0.00 0.00 0.00 71 1015.0
20260510184020 21 148 11.3 14.5 0.00 0.00 0.00 70 1014.9
20260510183515 21 161 4.8 8.0 0.00 0.00 0.00 71 1014.8
20260510183011 21 199 8.0 11.3 0.00 0.00 0.00 71 1014.6
20260510182503 21 96 3.2 8.0 0.00 0.00 0.00 74 1014.8
20260510181957 21 107 3.2 4.8 0.00 0.00 0.00 70 1014.7
20260510181456 21 148 4.8 4.8 0.00 0.00 0.00 70 1014.8
20260510180951 21 125 3.2 11.3 0.00 0.00 0.00 71 1014.9
20260510180449 20 200 4.8 8.0 0.00 0.00 0.00 72 1015.0
20260510175946 18 133 3.2 8.0 0.00 0.00 0.00 77 1014.9
20260510175441 20 104 4.8 14.5 0.00 0.00 0.00 75 1015.0
20260510174937 20 163 8.0 14.5 0.00 0.00 0.00 73 1014.7
20260510174436 20 128 0.0 4.8 0.00 0.00 0.00 76 1014.6
20260510173932 20 200 4.8 8.0 0.00 0.00 0.00 74 1014.8
20260510173428 21 122 3.2 8.0 0.00 0.00 0.00 74 1014.9
20260510172924 20 116 3.2 4.8 0.00 0.00 0.00 73 1014.9
20260510172420 20 141 3.2 4.8 0.00 0.00 0.00 75 1014.9
20260510171916 20 127 0.0 4.8 0.00 0.00 0.00 77 1015.0
20260510171414 20 119 3.2 16.1 0.00 0.00 0.00 76 1015.2
20260510170910 20 87 0.0 16.1 0.00 0.00 0.00 79 1015.1
20260510170407 20 112 0.0 16.1 0.00 0.00 0.00 76 1015.3
20260510165902 20 114 0.0 4.8 0.00 0.00 0.00 74 1015.4
20260510165359 20 119 3.2 8.0 0.00 0.00 0.00 75 1015.4
20260510164856 19 107 0.0 4.8 0.00 0.00 0.00 77 1015.3
20260510164353 19 188 3.2 11.3 0.00 0.00 0.00 76 1015.5
20260510163853 20 126 4.8 8.0 0.00 0.00 0.00 76 1015.6
20260510163349 19 132 8.0 11.3 0.00 0.00 0.00 77 1015.6
20260510162844 20 183 1.6 16.1 0.00 0.00 0.00 77 1015.7
20260510162341 19 113 1.6 8.0 0.00 0.00 0.00 76 1015.8
20260510161836 19 173 3.2 11.3 0.00 0.00 0.00 77 1015.8
20260510161333 18 146 8.0 14.5 0.00 0.00 0.00 78 1015.8
20260510160830 18 83 0.0 8.0 0.00 0.00 0.00 80 1016.0
20260510160327 18 128 1.6 16.1 0.00 0.00 0.00 81 1015.9
20260510155821 18 156 4.8 11.3 0.00 0.00 0.00 79 1015.7
20260510155318 18 126 3.2 14.5 0.00 0.00 0.00 80 1016.1
20260510154814 18 261 4.8 14.5 0.00 0.00 0.00 81 1016.1
20260510154310 18 106 4.8 11.3 0.00 0.00 0.00 81 1015.8
20260510153804 17 101 0.0 11.3 0.00 0.00 0.00 84 1016.3
20260510153300 17 119 4.8 11.3 0.00 0.00 0.00 82 1016.1
20260510152757 17 154 4.8 11.3 0.00 0.00 0.00 84 1016.0
20260510152254 16 111 3.2 4.8 0.00 0.00 0.00 84 1016.6
20260510151750 16 102 0.0 11.3 0.00 0.00 0.00 88 1016.5
20260510151249 15 106 1.6 4.8 0.00 0.00 0.00 88 1016.3
20260510150744 16 217 8.0 11.3 0.00 0.00 0.00 87 1016.3
20260510150240 15 116 1.6 3.2 0.00 0.00 0.00 90 1016.3
20260510145736 15 97 1.6 8.0 0.00 0.00 0.00 91 1016.3
20260510145233 15 165 0.0 11.3 0.00 0.00 0.00 91 1016.3
20260510144728 14 104 0.0 8.0 0.00 0.00 0.00 92 1016.2
20260510144226 15 115 0.0 11.3 0.00 0.00 0.00 91 1016.3
20260510143720 15 133 3.2 8.0 0.00 0.00 0.00 92 1016.5
20260510143217 13 110 0.0 8.0 0.00 0.00 0.00 94 1016.4
20260510142713 14 111 3.2 4.8 0.00 0.00 0.00 93 1016.2
20260510142210 14 135 4.8 8.0 0.00 0.00 0.00 93 1016.4
20260510141702 13 180 8.0 8.0 0.00 0.00 0.00 93 1016.2
20260510141200 12 119 1.6 3.2 0.00 0.00 0.00 96 1016.2
20260510140656 13 214 4.8 4.8 0.00 0.00 0.00 97 1016.3
20260510140156 13 101 0.0 8.0 0.00 0.00 0.00 98 1016.4
20260510135651 12 101 1.6 8.0 0.00 0.00 0.00 99 1016.3
20260510135147 12 194 6.4 8.0 0.00 0.00 0.00 99 1016.3
20260510134644 12 217 1.6 8.0 0.00 0.00 0.00 99 1016.5
20260510134142 12 107 1.6 8.0 0.00 0.00 0.00 99 1016.3
20260510133638 12 110 0.0 4.8 0.00 0.00 0.00 99 1016.5
20260510133133 12 110 0.0 4.8 0.00 0.00 0.00 99 1016.5
20260510132630 12 115 1.6 3.2 0.00 0.00 0.00 99 1016.6
20260510132127 12 108 0.0 4.8 0.00 0.00 0.00 99 1016.1
20260510131624 11 106 0.0 0.0 0.00 0.00 0.00 99 1016.6
20260510131122 12 110 0.0 4.8 0.00 0.00 0.00 99 1016.4
20260510130618 12 178 3.2 4.8 0.00 0.00 0.00 99 1016.3
20260510130115 12 107 0.0 3.2 0.00 0.00 0.00 99 1016.4
20260510125612 11 105 0.0 3.2 0.00 0.00 0.00 99 1016.2
20260510125108 11 120 3.2 4.8 0.00 0.00 0.00 99 1016.3
20260510124605 11 110 0.0 0.0 0.00 0.00 0.00 99 1016.3
20260510124102 12 118 0.0 4.8 0.00 0.00 0.00 99 1016.4
20260510123557 11 110 0.0 4.8 0.00 0.00 0.00 99 1016.2
20260510123054 11 109 0.0 4.8 0.00 0.00 0.00 99 1016.1
20260510122549 11 115 0.0 0.0 0.00 0.00 0.00 99 1016.1
20260510122046 11 109 0.0 0.0 0.00 0.00 0.00 99 1016.2
20260510121543 11 105 0.0 0.0 0.00 0.00 0.00 99 1016.1
20260510121040 11 93 0.0 0.0 0.00 0.00 0.00 99 1016.3
20260510120538 11 109 0.0 0.0 0.00 0.00 0.00 99 1016.3
20260510120033 11 131 3.2 3.2 0.00 0.00 0.00 99 1016.3
20260510115530 11 112 0.0 0.0 0.00 0.00 0.00 99 1016.3
20260510115027 11 116 3.2 3.2 0.00 0.00 0.00 99 1016.5
20260510114522 11 107 0.0 0.0 0.00 0.00 0.00 99 1016.2
20260510114019 11 107 0.0 0.0 0.00 0.00 0.00 99 1016.2
20260510113514 11 107 0.0 3.2 0.00 0.00 0.00 99 1016.5
20260510113012 11 107 0.0 0.0 0.00 0.00 0.00 99 1016.1
20260510112509 11 107 0.0 3.2 0.00 0.00 0.00 99 1016.2
20260510112005 11 107 0.0 3.2 0.00 0.00 0.00 99 1016.0
20260510111502 11 95 0.0 0.0 0.00 0.00 0.00 99 1016.2
20260510110957 11 95 0.0 0.0 0.00 0.00 0.00 99 1015.9
20260510110454 11 99 0.0 0.0 0.00 0.00 0.00 99 1015.9
20260510105950 11 116 1.6 3.2 0.00 0.00 0.00 99 1016.0
20260510105445 11 109 0.0 0.0 0.00 0.00 0.00 99 1016.1
20260510104940 11 109 0.0 0.0 0.00 0.00 0.00 99 1016.2
20260510104437 11 97 0.0 0.0 0.00 0.00 0.00 99 1015.8
20260510103934 11 97 0.0 4.8 0.00 0.00 0.00 99 1015.8
20260510103431 11 109 0.0 0.0 0.00 0.00 0.00 99 1015.7
20260510102926 11 110 0.0 3.2 0.00 0.00 0.00 99 1015.7
20260510102422 11 109 0.0 0.0 0.00 0.00 0.00 99 1015.6
20260510101920 11 109 0.0 0.0 0.00 0.00 0.00 99 1015.6
20260510101418 11 109 0.0 0.0 0.00 0.00 0.00 99 1015.4
20260510100915 11 109 0.0 0.0 0.00 0.00 0.00 99 1015.5
20260510100412 11 109 0.0 0.0 0.00 0.00 0.00 99 1015.1
20260510095908 11 106 0.0 0.0 0.00 1.04 1.04 99 1015.0
20260510095403 11 164 1.6 4.8 0.00 1.04 1.04 99 1014.8
20260510094902 11 112 1.6 4.8 0.00 1.04 1.04 99 1014.7
20260510094358 11 109 0.0 4.8 0.00 1.04 1.04 99 1014.6
20260510093854 11 107 0.0 0.0 0.00 1.04 1.04 99 1014.7
20260510093349 11 104 0.0 0.0 0.00 1.04 1.04 99 1014.8
20260510092846 10 104 0.0 0.0 0.00 1.04 1.04 99 1014.8
20260510092342 10 104 0.0 0.0 0.00 1.04 1.04 99 1014.8
20260510091838 10 102 0.0 0.0 0.00 1.04 1.04 99 1014.6
20260510091336 10 101 0.0 0.0 0.00 1.04 1.04 99 1014.8
20260510090832 10 101 0.0 0.0 0.00 1.04 1.04 99 1014.7
20260510090329 10 102 0.0 0.0 0.00 1.04 1.04 99 1014.8
20260510085824 10 108 0.0 0.0 0.00 1.04 1.04 99 1014.8
20260510085319 10 108 0.0 0.0 0.00 1.04 1.04 99 1015.0
20260510084815 11 108 0.0 0.0 0.00 1.04 1.04 99 1015.2
20260510084312 11 108 0.0 0.0 0.00 1.04 1.04 99 1015.4
20260510083809 11 108 0.0 0.0 0.00 1.04 1.04 99 1015.3
20260510083306 11 108 0.0 0.0 0.00 1.04 1.04 99 1015.4
20260510082801 11 108 0.0 0.0 0.00 1.04 1.04 99 1015.2
20260510082258 11 108 0.0 0.0 0.00 1.04 1.04 99 1015.3
20260510081756 11 108 0.0 0.0 0.00 1.04 1.04 99 1015.2
20260510081253 11 108 0.0 0.0 0.00 1.04 1.04 99 1015.3
20260510080748 11 109 0.0 0.0 0.00 1.04 1.04 99 1015.2
20260510080244 11 109 0.0 0.0 0.00 1.04 1.04 99 1015.2
20260510075741 11 106 0.0 0.0 0.00 1.04 1.04 99 1015.3
20260510075239 11 109 0.0 0.0 0.00 1.04 1.04 99 1015.3
20260510074736 11 109 0.0 0.0 0.00 1.04 1.04 99 1015.2
20260510074232 11 111 0.0 0.0 0.00 1.04 1.04 99 1015.2
20260510073728 11 109 0.0 0.0 0.00 1.04 1.04 99 1015.1
20260510073224 11 109 0.0 0.0 0.00 1.04 1.04 99 1014.9
20260510072720 11 109 0.0 0.0 0.00 1.04 1.04 99 1015.1
20260510072217 10 105 0.0 0.0 0.00 1.04 1.04 99 1014.9
20260510071714 10 105 0.0 0.0 0.00 1.04 1.04 99 1014.8
20260510071210 10 105 0.0 0.0 0.00 1.04 1.04 99 1014.8
20260510070708 10 106 0.0 0.0 0.00 1.04 1.04 99 1014.9
20260510070205 10 71 0.0 0.0 0.00 1.04 1.04 99 1014.7
20260510065700 10 71 0.0 0.0 0.00 1.04 1.04 99 1014.7
20260510065157 10 71 0.0 0.0 0.00 1.04 1.04 99 1014.8
20260510064653 10 71 0.0 0.0 0.00 1.04 1.04 99 1014.7
20260510064151 10 71 0.0 0.0 0.00 1.04 1.04 99 1014.9
20260510063648 10 71 0.0 0.0 0.00 1.04 1.04 99 1015.0
20260510063144 10 71 0.0 0.0 0.00 1.04 1.04 99 1015.0
20260510062640 10 71 0.0 0.0 0.00 1.04 1.04 99 1015.0
20260510062136 10 71 0.0 0.0 0.00 1.04 1.04 99 1014.8
20260510061632 10 71 0.0 0.0 0.00 1.04 1.04 99 1014.9
20260510061130 10 71 0.0 0.0 0.00 1.04 1.04 99 1014.9
20260510060625 10 71 0.0 0.0 0.00 1.04 1.04 99 1014.9
20260510060122 10 71 0.0 0.0 0.00 1.04 1.04 99 1014.8
20260510055618 10 90 0.0 0.0 0.00 1.04 1.04 99 1014.6
20260510055117 10 90 0.0 0.0 0.00 1.04 1.04 99 1014.7
20260510054612 10 96 0.0 0.0 0.00 1.04 1.04 99 1014.9
20260510054107 10 96 0.0 0.0 0.00 1.04 1.04 99 1014.9
20260510053606 10 96 0.0 0.0 0.00 1.04 1.04 99 1015.1
20260510053104 10 96 0.0 0.0 0.00 1.04 1.04 99 1015.2
20260510052600 10 96 0.0 0.0 0.00 1.04 1.04 99 1015.0
20260510052056 10 96 0.0 0.0 0.00 1.04 1.04 99 1014.8
20260510051551 10 96 0.0 0.0 0.00 1.04 1.04 99 1014.7
20260510051048 10 96 0.0 0.0 0.00 1.04 1.04 99 1014.8
20260510050540 10 96 0.0 0.0 0.00 1.04 1.04 99 1014.9
20260510050037 10 96 0.0 0.0 0.00 1.04 1.04 99 1014.8
20260510045534 10 96 0.0 0.0 0.00 1.04 1.04 99 1014.7
20260510045030 10 96 0.0 0.0 0.00 1.04 1.04 99 1014.8
20260510044527 10 96 0.0 0.0 0.00 1.04 1.04 99 1014.7
20260510044025 10 96 0.0 0.0 0.00 1.04 1.04 99 1014.7
20260510043520 10 96 0.0 0.0 0.00 1.04 1.04 99 1014.9
20260510043015 10 97 0.0 0.0 0.00 1.04 1.04 99 1015.0
20260510042510 10 95 0.0 0.0 0.00 1.04 1.04 99 1015.0
20260510042005 10 98 0.0 0.0 0.00 1.04 1.04 99 1014.9
20260510041503 10 98 0.0 0.0 0.00 1.04 1.04 99 1015.0
20260510041000 10 98 0.0 0.0 0.00 1.04 1.04 99 1015.0
20260510040456 10 100 3.2 11.3 0.00 1.04 1.04 99 1015.0
20260510035952 10 95 4.8 4.8 0.00 1.04 1.04 99 1015.0
20260510035449 10 97 0.0 0.0 0.00 1.04 1.04 99 1015.3
20260510034948 10 98 0.0 0.0 0.00 1.04 1.04 99 1015.5
20260510034447 10 98 0.0 0.0 0.00 1.04 1.04 99 1015.2
20260510033943 10 97 1.6 3.2 0.00 1.04 1.04 99 1015.0
20260510033439 10 98 0.0 0.0 0.00 1.04 1.04 99 1015.3
20260510032937 10 98 0.0 0.0 0.00 1.04 1.04 99 1015.3
20260510032433 10 97 0.0 0.0 0.00 1.04 1.04 99 1014.9
20260510031928 10 98 0.0 0.0 0.00 1.04 1.04 99 1015.2
20260510031424 10 97 0.0 0.0 0.00 1.04 1.04 99 1015.0
20260510030920 10 97 0.0 0.0 0.00 1.04 1.04 99 1014.9
20260510030415 10 97 0.0 0.0 0.00 1.04 1.04 99 1015.0
20260510025913 10 98 0.0 0.0 0.00 1.04 1.04 99 1015.0
20260510025411 10 98 0.0 0.0 0.00 1.04 1.04 99 1015.1
20260510024908 10 97 0.0 0.0 0.00 1.04 1.04 99 1015.0
20260510024404 10 97 0.0 0.0 0.00 1.04 1.04 99 1014.9
20260510023900 10 97 0.0 0.0 0.00 1.04 1.04 99 1014.8
20260510023356 10 97 0.0 0.0 0.00 1.04 1.04 99 1015.0
20260510022854 10 96 0.0 0.0 0.00 1.04 1.04 99 1014.7
20260510022353 10 96 0.0 0.0 0.00 1.04 1.04 99 1015.0
20260510021852 10 97 0.0 3.2 0.00 1.04 1.04 99 1014.9
20260510021350 10 96 3.2 3.2 0.00 1.04 1.04 99 1014.9
20260510020846 10 99 3.2 4.8 0.00 1.04 1.04 99 1015.3
20260510020346 10 71 0.0 0.0 0.00 1.04 1.04 99 1015.5
20260510015842 10 72 0.0 0.0 0.00 1.04 1.04 99 1015.8
20260510015338 10 72 0.0 0.0 0.00 1.04 1.04 99 1015.8
20260510014833 10 72 0.0 3.2 0.00 1.04 1.04 99 1015.7
20260510014331 10 42 3.2 4.8 0.00 1.04 1.04 99 1015.7
20260510013827 10 60 0.0 0.0 0.00 1.04 1.04 99 1015.6
20260510013323 10 59 0.0 0.0 0.00 1.04 1.04 99 1015.8
20260510012818 10 59 0.0 3.2 0.00 1.04 1.04 99 1015.7
20260510012318 10 67 3.2 3.2 0.00 1.04 1.04 99 1015.6
20260510011813 10 102 0.0 0.0 0.00 1.04 1.04 99 1015.4
20260510011308 10 102 0.0 0.0 0.00 1.04 1.04 99 1015.3
20260510010805 10 101 0.0 0.0 0.00 1.04 1.04 99 1015.2
20260510010303 10 102 0.0 0.0 0.00 1.04 1.04 99 1015.1
20260510005759 10 102 0.0 0.0 0.00 1.04 1.04 99 1014.9
20260510005255 10 102 0.0 0.0 0.00 1.04 1.04 99 1014.6
20260510004753 10 108 0.0 0.0 0.00 1.04 1.04 99 1014.7
20260510004251 10 112 1.6 3.2 0.00 1.04 1.04 99 1014.8
20260510003748 10 107 0.0 0.0 0.00 1.04 1.04 99 1014.8
20260510003244 10 107 0.0 3.2 0.00 1.04 1.04 99 1014.9
20260510002743 10 72 0.0 3.2 0.00 1.04 1.04 99 1014.8
20260510002241 10 72 0.0 3.2 0.00 1.04 1.04 99 1014.7
20260510001738 10 71 0.0 3.2 0.00 1.04 1.04 99 1014.7
20260510001236 10 71 0.0 3.2 0.00 1.04 1.04 99 1014.9
20260510000731 10 88 1.6 4.8 0.00 1.04 1.04 99 1014.8
20260510000229 10 104 0.0 3.2 0.00 1.04 1.04 99 1014.9
20260509235725 10 97 0.0 3.2 0.00 1.04 1.04 99 1014.8
20260509235222 10 74 1.6 8.0 0.00 1.04 1.04 99 1014.8
20260509234718 10 87 0.0 3.2 0.00 1.04 1.04 99 1015.2
20260509234215 10 87 0.0 0.0 0.00 1.04 1.04 99 1014.9
20260509233714 10 87 0.0 0.0 0.00 1.04 1.04 99 1015.0
20260509233211 10 86 0.0 3.2 0.00 1.04 1.04 99 1015.0
20260509232707 10 83 0.0 4.8 0.00 1.04 1.04 99 1015.1
20260509232204 10 74 0.0 0.0 0.00 1.04 1.04 99 1014.7
20260509231700 10 74 0.0 0.0 0.00 1.04 1.04 99 1014.8
20260509231158 10 74 0.0 0.0 0.00 1.04 1.04 99 1014.6
20260509230655 10 58 0.0 4.8 0.00 1.04 1.04 99 1014.7
20260509230151 10 59 3.2 4.8 0.00 1.04 1.04 99 1014.7
20260509225647 10 81 0.0 0.0 0.00 1.04 1.04 99 1015.0
20260509225143 10 81 0.0 0.0 0.00 1.04 1.04 99 1014.9
20260509224638 10 81 0.0 0.0 0.00 1.04 1.04 99 1015.0
20260509224136 10 81 0.0 0.0 0.00 1.04 1.04 99 1014.7
20260509223632 10 81 0.0 0.0 0.00 1.04 1.04 99 1014.7
20260509223130 10 81 0.0 0.0 0.00 1.04 1.04 99 1014.8
20260509222626 9 81 0.0 0.0 0.00 1.04 1.04 99 1014.7
20260509222116 9 81 0.0 0.0 0.00 1.04 1.04 99 1014.8
20260509221612 10 81 0.0 0.0 0.00 1.04 1.04 99 1014.9
20260509221109 9 76 0.0 0.0 0.00 1.04 1.04 99 1014.7
20260509220604 9 76 0.0 0.0 0.00 1.04 1.04 99 1015.0
20260509215556 9 84 0.0 4.8 0.00 1.04 1.04 99 1014.9
20260509215054 9 18 4.8 4.8 0.18 1.04 1.04 99 1014.7
20260509214551 9 67 4.8 8.0 0.18 1.04 1.04 99 1014.6
20260509214048 9 61 3.2 4.8 0.00 1.02 1.02 99 1014.9
20260509213544 9 104 0.0 0.0 0.13 1.02 1.02 99 1014.8
20260509213041 9 104 0.0 0.0 0.13 1.02 1.02 99 1014.8
20260509212538 9 104 0.0 3.2 0.00 0.99 0.99 99 1014.8
20260509212035 9 88 0.0 0.0 0.00 0.99 0.99 99 1015.0
20260509211530 9 99 0.0 0.0 0.13 0.99 0.99 99 1015.3
20260509211027 9 77 0.0 0.0 0.18 0.97 0.97 99 1015.1
20260509210524 9 70 0.0 3.2 0.18 0.97 0.97 99 1015.2
20260509210020 9 106 0.0 0.0 0.13 0.94 0.94 99 1015.2
20260509205515 9 106 0.0 0.0 0.13 0.94 0.94 99 1015.4
20260509205010 9 107 0.0 0.0 0.18 0.91 0.91 99 1015.3
20260509204507 9 106 0.0 3.2 0.00 0.89 0.89 99 1015.5
20260509204003 9 103 0.0 0.0 0.13 0.89 0.89 99 1015.7
20260509203459 9 103 0.0 0.0 0.13 0.89 0.89 99 1015.7
20260509202957 9 103 0.0 0.0 0.00 0.86 0.86 99 1015.7
20260509202453 9 103 0.0 0.0 0.18 0.86 0.86 99 1015.7
20260509201948 9 103 0.0 0.0 0.30 0.86 0.86 99 1015.8
20260509201443 9 103 0.0 3.2 0.13 0.84 0.84 99 1015.9
20260509200940 9 93 0.0 0.0 0.13 0.81 0.81 99 1016.0
20260509200441 8 93 0.0 0.0 0.18 0.81 0.81 99 1016.1
20260509195937 8 93 0.0 0.0 0.18 0.81 0.81 99 1016.0
20260509195433 8 70 0.0 0.0 0.13 0.76 0.76 99 1016.1
20260509194933 8 71 0.0 0.0 0.13 0.76 0.76 99 1016.0
20260509194428 8 71 0.0 0.0 0.18 0.74 0.74 99 1015.9